Location: Raleigh
(35.7720°N, 78.6390°W)
Time: 15:51:18
(UTC-05:00)

Amateur Radio Satellites - All Passes

Search period start: 20 December 2014 15:21
Search period end: 21 December 2014 15:21
Location: Raleigh, 35.7720°N, 78.6390°W

Satellite Date Start Highest point End Downlink Frequencies (MHz)
Time Altitude Azimuth
JAS-2 20 Dec 15:35:12 15:41:50 33° 68° (ENE) 15:48:00 435.910
AO-7 20 Dec 15:47:07 15:55:26 80° 254° (WSW) 16:03:50 29.400- 29.500
MOZHAYETS 4 20 Dec 16:03:10 16:05:27 14° 92° (E) 16:07:42
SRMSAT 20 Dec 16:11:47 16:15:14 16° 185° (S) 16:18:40 437.500
AIST 1 20 Dec 16:27:08 16:31:29 68° 95° (E) 16:35:50
STARS 20 Dec 16:28:40 16:30:44 13° 295° (WNW) 16:32:47 437.465
Cubesat XI-IV 20 Dec 16:39:28 16:43:08 19° 65° (ENE) 16:46:48 437.490
GONETS M04 20 Dec 16:50:00 16:58:45 69° 81° (E) 17:07:22
CUTE-I 20 Dec 17:11:20 17:16:12 38° 70° (ENE) 17:21:04 437.470
JAS-2 20 Dec 17:19:15 17:26:35 46° 261° (W) 17:33:27 435.910
RS-15 20 Dec 17:30:10 17:35:06 13° 12° (NNE) 17:40:05 29.354- 29.394
MOZHAYETS 4 20 Dec 17:38:27 17:42:55 49° 286° (WNW) 17:47:19
AO-7 20 Dec 17:46:01 17:49:15 13° 270° (W) 17:52:31 29.400- 29.500
MaSat-1 20 Dec 18:02:57 18:04:50 19° 63° (ENE) 18:06:48 437.345
Cubesat XI-IV 20 Dec 18:17:41 18:22:49 48° 260° (W) 18:27:58 437.490
PRISM 20 Dec 18:24:30 18:28:39 73° 102° (ESE) 18:32:45 437.425
CUSAT 1 20 Dec 18:43:14 18:45:18 11° 64° (ENE) 18:47:25 437.405
GONETS M04 20 Dec 18:48:31 18:54:38 22° 279° (W) 19:00:45
CUTE-I 20 Dec 18:52:09 18:56:19 23° 265° (W) 19:00:30 437.470
CUBESAT XI-V 20 Dec 19:01:07 19:05:44 86° 102° (ESE) 19:10:19 437.345
STRAND 1 20 Dec 19:10:08 19:15:15 83° 103° (ESE) 19:20:20 437.568
HO-68 20 Dec 19:19:58 19:26:07 32° 64° (ENE) 19:32:16 435.675
DANDE 20 Dec 19:31:25 19:37:38 25° 71° (ENE) 19:44:19 436.750
RS-15 20 Dec 19:42:19 19:52:24 36° 45° (NE) 20:02:48 29.354- 29.394
DOVE 4 20 Dec 19:46:12 19:48:19 14° 67° (ENE) 19:50:26 437.250
AAUSAT CUBESAT 2 20 Dec 19:48:42 19:51:30 18° 68° (ENE) 19:54:20 437.432
CANX-2 20 Dec 20:00:57 20:04:58 43° 74° (ENE) 20:09:03 2200.000
CINEMA 3 20 Dec 20:10:58 20:13:26 16° 67° (ENE) 20:15:56 145.822/145.860
CUSAT 1 20 Dec 20:21:43 20:29:34 62° 79° (E) 20:37:58 437.405
COMPASS 1 20 Dec 20:22:35 20:26:39 51° 74° (ENE) 20:30:46 437.405
ISS 20 Dec 20:22:49 20:26:00 48° 39° (NE) 20:29:10 145.825
SEEDS 20 Dec 20:28:02 20:32:15 73° 76° (ENE) 20:36:31 437.485
BRITE-PL 20 Dec 20:30:12 20:34:25 82° 258° (WSW) 20:38:34 437.365/2234.400
CUTE 1.7 + AOD 2 20 Dec 20:31:30 20:35:45 87° 258° (WSW) 20:40:04 437.475
UWE-3 20 Dec 20:32:27 20:34:38 14° 66° (ENE) 20:36:51 435.000/436.395/437.385
FUNcube-1 20 Dec 20:32:30 20:33:50 11° 65° (ENE) 20:35:11 145.935
DELFI C3 20 Dec 20:39:28 20:42:56 27° 71° (ENE) 20:46:24 145.870
DX 1 20 Dec 20:46:08 20:49:59 32° 71° (ENE) 20:53:50 434.975-435.025
AISAT 20 Dec 20:50:50 20:52:17 12° 64° (ENE) 20:53:44 437.250
SO-50 20 Dec 20:52:12 20:56:39 73° 118° (ESE) 21:01:17 436.795
STRAND 1 20 Dec 20:52:44 20:53:41 11° 299° (WNW) 20:54:38 437.568
GOMX 1 20 Dec 20:56:37 21:00:42 57° 260° (W) 21:04:48 467.674
HUMSAT D 20 Dec 21:04:43 21:07:12 16° 67° (ENE) 21:09:41 437.325/437.525
HO-68 20 Dec 21:06:46 21:13:33 45° 260° (W) 21:20:22 435.675
Oscar 11 20 Dec 21:07:59 21:12:17 75° 76° (ENE) 21:16:39 145.826/435.025
DANDE 20 Dec 21:13:37 21:21:29 71° 265° (W) 21:30:07 436.750
UKube-1 20 Dec 21:16:35 21:20:53 72° 75° (ENE) 21:25:13 .
DOVE 4 20 Dec 21:21:51 21:25:43 39° 262° (W) 21:29:39 437.250
AAUSAT CUBESAT 2 20 Dec 21:23:07 21:26:53 32° 263° (W) 21:30:43 437.432
CUBEBUG 2 20 Dec 21:28:37 21:32:45 79° 77° (ENE) 21:37:01 437.445
BEESAT 2 20 Dec 21:30:24 21:33:09 17° 49° (NE) 21:35:51 435.950
ZACube-1 20 Dec 21:38:47 21:42:55 73° 76° (ENE) 21:47:09 437.345
CANX-2 20 Dec 21:39:05 21:41:06 13° 268° (W) 21:43:08 2200.000
TIGRISAT 20 Dec 21:39:52 21:41:14 11° 91° (E) 21:42:35 435.000
VELOX 1 20 Dec 21:40:58 21:45:07 42° 73° (ENE) 21:49:17 145.980
ESTCUBE 1 20 Dec 21:45:03 21:48:09 19° 67° (ENE) 21:51:15 437.505/2401.250
CINEMA 3 20 Dec 21:46:31 21:50:19 35° 262° (W) 21:54:13 145.822/145.860
RS-15 20 Dec 21:54:19 22:05:32 68° 246° (WSW) 22:17:16 29.354- 29.394
ISS 20 Dec 22:00:42 22:02:14 13° 233° (SW) 22:03:46 145.825
COMPASS 1 20 Dec 22:01:32 22:02:38 11° 269° (W) 22:03:45 437.405
YUBILEINY 20 Dec 22:04:11 22:05:26 10° 75° (ENE) 22:06:41 435.215
FUNcube-1 20 Dec 22:05:37 22:09:40 52° 260° (W) 22:13:49 145.935
CUSAT 1 20 Dec 22:05:45 22:12:12 28° 273° (W) 22:18:59 437.405
UWE-3 20 Dec 22:06:51 22:10:46 41° 262° (W) 22:14:48 435.000/436.395/437.385
UNISAT 6 20 Dec 22:06:55 22:10:45 24° 95° (E) 22:14:33 437.425
DUCHIFAT 1 20 Dec 22:06:59 22:08:56 13° 93° (E) 22:10:52 145.980
DELFI C3 20 Dec 22:15:07 22:18:09 20° 265° (W) 22:21:12 145.870
50 SAT 20 Dec 22:15:21 22:19:20 90° 256° (WSW) 22:23:24 437.505
QB50P2 20 Dec 22:19:38 22:22:43 19° 95° (E) 22:25:48 145.880/145.840
PCSat 20 Dec 22:20:14 22:24:43 26° 53° (NE) 22:29:09 145.827
DX 1 20 Dec 22:23:11 22:26:14 19° 265° (W) 22:29:19 434.975-435.025
AISAT 20 Dec 22:24:01 22:28:22 58° 259° (W) 22:32:44 437.250
BEESAT 3 20 Dec 22:27:26 22:31:37 72° 60° (ENE) 22:35:42 437.485
POLYITAN 1 20 Dec 22:28:10 22:31:40 24° 96° (E) 22:35:11 437.675
CUBEBUG 1 20 Dec 22:29:34 22:33:49 53° 74° (ENE) 22:38:04 437.445
NANOSAT C BR1 20 Dec 22:30:15 22:33:47 25° 96° (E) 22:37:18 145.865
AIST 2 20 Dec 22:35:10 22:39:07 35° 55° (NE) 22:42:59 435.215
SO-50 20 Dec 22:35:29 22:37:45 13° 316° (NW) 22:40:03 436.795
ANTELSAT 20 Dec 22:38:13 22:42:52 54° 100° (E) 22:47:29 437.575/2403.000
HUMSAT D 20 Dec 22:38:53 22:42:40 35° 262° (W) 22:46:31 437.325/437.525
QB50P1 20 Dec 22:44:20 22:48:18 37° 98° (E) 22:52:15 145.935-145.965
DANDE 20 Dec 23:01:03 23:03:56 12° 278° (W) 23:06:53 436.750
BEESAT 2 20 Dec 23:07:38 23:11:36 43° 245° (WSW) 23:15:30 435.950
POPSAT HIP 1 20 Dec 23:12:48 23:17:05 84° 102° (ESE) 23:21:22 437.405
TIGRISAT 20 Dec 23:13:39 23:18:18 63° 285° (WNW) 23:22:57 435.000
VELOX 1 20 Dec 23:19:23 23:21:51 15° 267° (W) 23:24:20 145.980
ESTCUBE 1 20 Dec 23:20:32 23:24:43 37° 262° (W) 23:28:55 437.505/2401.250
TISAT 1 20 Dec 23:33:01 23:37:10 67° 76° (ENE) 23:41:21 437.305
SPROUT 20 Dec 23:36:51 23:41:05 68° 76° (ENE) 23:45:21 437.525
BUGSAT 1 20 Dec 23:39:01 23:43:00 57° 285° (WNW) 23:47:00 437.445
DUCHIFAT 1 20 Dec 23:40:55 23:44:58 44° 287° (WNW) 23:49:01 145.980
UNISAT 6 20 Dec 23:43:23 23:47:28 30° 290° (WNW) 23:51:32 437.425
O/OREOS (USA 219) 20 Dec 23:47:06 23:50:29 22° 101° (ESE) 23:53:53 437.305
YUBILEINY 20 Dec 23:51:53 00:00:34 73° 93° (E) 00:09:15 435.215
QB50P2 20 Dec 23:54:54 23:58:38 30° 289° (WNW) 00:02:22 145.880/145.840
AUBIESAT-1 21 Dec 00:01:31 00:03:34 13° 59° (ENE) 00:05:36 437.475
PCSat 21 Dec 00:03:11 00:08:13 40° 250° (WSW) 00:13:13 145.827
POLYITAN 1 21 Dec 00:04:02 00:07:30 24° 290° (WNW) 00:10:58 437.675
NANOSAT C BR1 21 Dec 00:06:09 00:09:31 23° 290° (WNW) 00:12:52 145.865
CUBEBUG 1 21 Dec 00:09:11 00:10:27 11° 268° (W) 00:11:43 437.445
RS-15 21 Dec 00:12:37 00:15:52 12° 263° (W) 00:19:09 29.354- 29.394
AIST 2 21 Dec 00:14:28 00:17:27 19° 250° (WSW) 00:20:24 435.215
ANTELSAT 21 Dec 00:16:41 00:19:09 14° 295° (WNW) 00:21:38 437.575/2403.000
QB50P1 21 Dec 00:21:14 00:23:51 16° 293° (WNW) 00:26:29 145.935-145.965
SWISSCUBE 21 Dec 00:24:46 00:29:11 38° 71° (ENE) 00:33:38 437.505
M-CUBED/EXP-1 PRIME 21 Dec 00:25:12 00:29:03 24° 63° (ENE) 00:32:58 437.505
ITUPSAT 1 21 Dec 00:25:25 00:29:46 35° 71° (ENE) 00:34:08 437.325
BEESAT 21 Dec 00:49:21 00:54:05 66° 75° (ENE) 00:58:51 436.000
O/OREOS (USA 219) 21 Dec 01:25:49 01:29:41 29° 297° (WNW) 01:33:34 437.305
VERMONT LUNAR 21 Dec 01:32:15 01:34:33 17° 144° (SE) 01:36:52 437.305
AUBIESAT-1 21 Dec 01:33:03 01:37:49 74° 254° (WSW) 01:42:44 437.475
Oscar 19 21 Dec 01:43:13 01:48:26 74° 102° (ESE) 01:53:36 437.125/150
STARS 21 Dec 01:45:09 01:49:00 31° 71° (ENE) 01:52:53 437.465
PHONESAT 2.4 21 Dec 01:47:49 01:49:48 14° 142° (SE) 01:51:47 2401.200-2431.200
KKS-1 21 Dec 01:48:57 01:53:16 54° 74° (ENE) 01:57:35 437.445
YUBILEINY 21 Dec 01:51:54 01:58:08 21° 292° (WNW) 02:04:24 435.215
Gurwin Techsat 1B 21 Dec 01:57:18 02:01:15 21° 94° (E) 02:05:11 435.225
M-CUBED/EXP-1 PRIME 21 Dec 01:59:24 02:03:47 35° 258° (WSW) 02:08:18 437.505
ITAMSAT 1 21 Dec 01:59:52 02:04:38 36° 98° (E) 02:09:22 435.822/435.867
SWISSCUBE 21 Dec 02:03:47 02:07:08 19° 266° (W) 02:10:31 437.505
ITUPSAT 1 21 Dec 02:04:07 02:07:42 21° 265° (W) 02:11:17 437.325
BEESAT 21 Dec 02:31:17 02:32:19 11° 269° (W) 02:33:21 436.000
AIST 1 21 Dec 02:39:31 02:41:19 12° 72° (ENE) 02:43:06
VERMONT LUNAR 21 Dec 03:09:00 03:12:32 86° 155° (SSE) 03:16:04 437.305
HORYU 2 21 Dec 03:14:09 03:18:30 46° 100° (E) 03:22:49 437.375
STARS 21 Dec 03:22:23 03:25:30 19° 265° (W) 03:28:39 437.465
PHONESAT 2.4 21 Dec 03:24:28 03:28:05 74° 156° (SSE) 03:31:42 2401.200-2431.200
Oscar 19 21 Dec 03:25:02 03:27:05 12° 298° (WNW) 03:29:08 437.125/150
KKS-1 21 Dec 03:28:53 03:30:11 11° 268° (W) 03:31:30 437.445
Gurwin Techsat 1B 21 Dec 03:36:22 03:41:20 41° 289° (WNW) 03:46:16 435.225
ITAMSAT 1 21 Dec 03:39:51 03:43:53 24° 293° (WNW) 03:47:54 435.822/435.867
AO-7 21 Dec 03:52:18 04:00:08 42° 100° (E) 04:07:54 29.400- 29.500
GONETS M04 21 Dec 03:56:05 04:00:07 14° 77° (ENE) 04:04:09
AIST 1 21 Dec 04:15:09 04:19:12 43° 268° (W) 04:23:13
JAS-2 21 Dec 04:33:31 04:38:04 26° 95° (E) 04:42:24 435.910
MOZHAYETS 4 21 Dec 04:37:12 04:41:49 75° 258° (WSW) 04:46:30
VERMONT LUNAR 21 Dec 04:47:44 04:51:03 38° 354° (N) 04:54:23 437.305
HORYU 2 21 Dec 04:52:12 04:54:44 15° 294° (WNW) 04:57:17 437.375
PHONESAT 2.4 21 Dec 05:03:29 05:06:56 41° 352° (N) 05:10:24 2401.200-2431.200
PRISM 21 Dec 05:12:32 05:16:25 36° 72° (ENE) 05:20:18 437.425
SO-50 21 Dec 05:26:35 05:30:59 32° 53° (NE) 05:35:22 436.795
CUTE-I 21 Dec 05:32:11 05:35:51 19° 94° (E) 05:39:30 437.470
AO-7 21 Dec 05:45:11 05:52:46 40° 297° (WNW) 06:00:19 29.400- 29.500
GONETS M04 21 Dec 05:46:40 05:55:31 86° 95° (E) 06:04:24
CUBESAT XI-V 21 Dec 06:01:36 06:06:12 60° 75° (ENE) 06:10:47 437.345
JAS-2 21 Dec 06:18:23 06:23:12 31° 292° (WNW) 06:27:43 435.910
STRAND 1 21 Dec 06:23:06 06:28:13 88° 76° (ENE) 06:33:21 437.568
VERMONT LUNAR 21 Dec 06:26:22 06:29:46 45° 11° (N) 06:33:10 437.305
Cubesat XI-IV 21 Dec 06:37:41 06:43:02 86° 104° (ESE) 06:48:21 437.490
PHONESAT 2.4 21 Dec 06:42:33 06:46:02 43° 10° (N) 06:49:31 2401.200-2431.200
PRISM 21 Dec 06:49:29 06:52:02 16° 266° (W) 06:54:35 437.425
SO-50 21 Dec 07:07:16 07:11:25 28° 248° (WSW) 07:15:33 436.795
CUTE-I 21 Dec 07:11:02 07:16:06 46° 288° (WNW) 07:21:09 437.470
CUBESAT XI-V 21 Dec 07:42:32 07:43:57 11° 269° (W) 07:45:22 437.345
GONETS M04 21 Dec 07:47:56 07:53:24 18° 294° (WNW) 07:58:55
VERMONT LUNAR 21 Dec 08:04:42 08:08:09 54° 207° (SSW) 08:11:36 437.305
COMPASS 1 21 Dec 08:12:27 08:13:10 10° 91° (E) 08:13:53 437.405
SEEDS 21 Dec 08:17:09 08:19:41 15° 93° (E) 08:22:13 437.485
CUTE 1.7 + AOD 2 21 Dec 08:20:49 08:24:01 20° 95° (E) 08:27:12 437.475
Cubesat XI-IV 21 Dec 08:21:04 08:22:20 11° 299° (WNW) 08:23:35 437.490
PHONESAT 2.4 21 Dec 08:21:14 08:24:50 64° 205° (SSW) 08:28:26 2401.200-2431.200
BRITE-PL 21 Dec 08:36:44 08:41:16 39° 99° (E) 08:46:06 437.365/2234.400
HO-68 21 Dec 08:37:21 08:44:04 42° 99° (E) 08:50:43 435.675
DANDE 21 Dec 08:46:02 08:47:30 12° 81° (E) 08:49:07 436.750
MaSat-1 21 Dec 08:50:46 08:52:57 34° 295° (WNW) 08:55:03 437.345
Oscar 11 21 Dec 08:59:33 09:02:25 17° 94° (E) 09:05:15 145.826/435.025
GOMX 1 21 Dec 09:00:10 09:04:53 50° 100° (E) 09:09:54 467.674
UNISAT 6 21 Dec 09:04:45 09:07:14 15° 66° (ENE) 09:09:44 437.425
UKube-1 21 Dec 09:08:51 09:11:19 15° 94° (E) 09:13:48 .
AAUSAT CUBESAT 2 21 Dec 09:09:13 09:13:19 47° 99° (E) 09:17:22 437.432
QB50P2 21 Dec 09:12:33 09:13:31 11° 65° (ENE) 09:14:29 145.880/145.840
POLYITAN 1 21 Dec 09:20:25 09:22:30 14° 66° (ENE) 09:24:36 437.675
NANOSAT C BR1 21 Dec 09:21:58 09:24:08 14° 66° (ENE) 09:26:18 145.865
DOVE 4 21 Dec 09:22:36 09:27:25 64° 101° (E) 09:32:29 437.250
CUBEBUG 2 21 Dec 09:23:10 09:26:48 22° 95° (E) 09:30:29 437.445
CANX-2 21 Dec 09:25:01 09:29:17 60° 285° (WNW) 09:33:31 2200.000
ZACube-1 21 Dec 09:31:18 09:34:31 19° 94° (E) 09:37:45 437.345
CUSAT 1 21 Dec 09:31:28 09:34:53 69° 95° (E) 09:39:28 437.405
ANTELSAT 21 Dec 09:35:05 09:38:58 32° 71° (ENE) 09:42:57 437.575/2403.000
QB50P1 21 Dec 09:35:28 09:38:33 20° 69° (ENE) 09:41:38 145.935-145.965
CINEMA 3 21 Dec 09:43:18 09:48:03 63° 101° (E) 09:52:58 145.822/145.860
COMPASS 1 21 Dec 09:45:01 09:49:11 53° 285° (WNW) 09:53:18 437.405
SEEDS 21 Dec 09:51:40 09:55:38 37° 287° (WNW) 09:59:33 437.485
CUTE 1.7 + AOD 2 21 Dec 09:56:12 09:59:56 29° 289° (WNW) 10:03:38 437.475
FUNcube-1 21 Dec 09:57:01 10:01:14 36° 98° (E) 10:05:27 145.935
DELFI C3 21 Dec 09:57:26 10:01:33 71° 101° (E) 10:05:37 145.870
O/OREOS (USA 219) 21 Dec 09:59:04 10:02:56 27° 63° (ENE) 10:06:47 437.305
UWE-3 21 Dec 09:59:17 10:03:45 47° 99° (E) 10:08:16 435.000/436.395/437.385
50 SAT 21 Dec 09:59:47 10:02:22 16° 94° (E) 10:04:56 437.505
PHONESAT 2.4 21 Dec 10:01:38 10:03:04 12° 219° (SW) 10:04:29 2401.200-2431.200
POPSAT HIP 1 21 Dec 10:03:13 10:07:11 42° 73° (ENE) 10:11:10 437.405
RS-15 21 Dec 10:05:20 10:13:23 24° 102° (ESE) 10:21:21 29.354- 29.394
YUBILEINY 21 Dec 10:06:20 10:13:45 31° 73° (ENE) 10:21:08 435.215
TIGRISAT 21 Dec 10:09:40 10:13:59 82° 77° (ENE) 10:18:26 435.000
DX 1 21 Dec 10:12:59 10:17:21 89° 284° (WNW) 10:21:42 434.975-435.025
BRITE-PL 21 Dec 10:16:03 10:19:32 20° 291° (WNW) 10:23:11 437.365/2234.400
AISAT 21 Dec 10:18:18 10:22:18 32° 98° (E) 10:26:17 437.250
CUBEBUG 1 21 Dec 10:23:38 10:25:23 12° 92° (E) 10:27:07 437.445
HO-68 21 Dec 10:25:20 10:31:33 33° 295° (WNW) 10:37:44 435.675
HUMSAT D 21 Dec 10:25:59 10:30:08 43° 99° (E) 10:34:17 437.325/437.525
BUGSAT 1 21 Dec 10:26:23 10:30:26 65° 76° (ENE) 10:34:28 437.445
DANDE 21 Dec 10:27:19 10:30:19 27° 289° (WNW) 10:34:07 436.750
DUCHIFAT 1 21 Dec 10:30:36 10:34:47 88° 256° (WSW) 10:39:01 145.980
Oscar 11 21 Dec 10:34:41 10:38:39 35° 288° (WNW) 10:42:36 145.826/435.025
UNISAT 6 21 Dec 10:39:28 10:43:36 43° 261° (W) 10:47:51 437.425
GOMX 1 21 Dec 10:39:38 10:42:38 17° 292° (WNW) 10:45:45 467.674
UKube-1 21 Dec 10:43:34 10:47:37 39° 288° (WNW) 10:51:38 .
QB50P2 21 Dec 10:44:46 10:48:54 57° 259° (W) 10:53:04 145.880/145.840
AAUSAT CUBESAT 2 21 Dec 10:46:37 10:48:32 13° 294° (WNW) 10:50:26 437.432
POLYITAN 1 21 Dec 10:54:02 10:58:02 43° 261° (W) 11:02:04 437.675
NANOSAT C BR1 21 Dec 10:55:38 10:59:37 42° 261° (W) 11:03:37 145.865
CUBEBUG 2 21 Dec 10:59:20 11:03:28 32° 288° (WNW) 11:07:40 437.445
DOVE 4 21 Dec 11:02:28 11:04:41 13° 294° (WNW) 11:06:57 437.250
ZACube-1 21 Dec 11:06:47 11:10:55 35° 288° (WNW) 11:15:06 437.345
QB50P1 21 Dec 11:10:36 11:14:14 28° 263° (W) 11:17:53 145.935-145.965
VELOX 1 21 Dec 11:10:53 11:15:15 62° 285° (WNW) 11:19:36 145.980
ANTELSAT 21 Dec 11:12:46 11:15:50 19° 266° (W) 11:18:57 437.575/2403.000
ESTCUBE 1 21 Dec 11:15:59 11:20:25 56° 100° (E) 11:24:48 437.505/2401.250
JUGNU 21 Dec 11:18:15 11:20:39 13° 168° (SSE) 11:23:03 437.505
CINEMA 3 21 Dec 11:22:35 11:24:45 13° 294° (WNW) 11:26:56 145.822/145.860
TISAT 1 21 Dec 11:22:41 11:24:46 13° 93° (E) 11:26:49 437.305
SPROUT 21 Dec 11:28:04 11:30:32 15° 93° (E) 11:32:59 437.525
50 SAT 21 Dec 11:33:53 11:37:39 34° 288° (WNW) 11:41:24 437.505
FUNcube-1 21 Dec 11:34:06 11:37:17 19° 292° (WNW) 11:40:29 145.935
UWE-3 21 Dec 11:37:11 11:39:53 16° 293° (WNW) 11:42:36 435.000/436.395/437.385
O/OREOS (USA 219) 21 Dec 11:38:34 11:42:11 24° 258° (WSW) 11:45:49 437.305
POPSAT HIP 1 21 Dec 11:41:18 11:43:16 13° 267° (W) 11:45:14 437.405
AISAT 21 Dec 11:55:28 11:58:41 20° 292° (WNW) 12:01:53 437.250
CUBEBUG 1 21 Dec 11:57:49 12:01:59 48° 286° (WNW) 12:06:08 437.445
YUBILEINY 21 Dec 12:02:30 12:10:47 52° 270° (W) 12:19:05 435.215
HUMSAT D 21 Dec 12:03:10 12:05:32 15° 293° (WNW) 12:07:55 437.325/437.525
RS-15 21 Dec 12:13:32 12:24:29 77° 301° (WNW) 12:35:29 29.354- 29.394
BEESAT 3 21 Dec 12:19:52 12:23:19 27° 112° (ESE) 12:26:50 437.485
SRMSAT 21 Dec 12:24:15 12:25:35 11° 166° (SSE) 12:26:55 437.500
SWISSCUBE 21 Dec 12:30:13 12:32:05 12° 92° (E) 12:33:57 437.505
ITUPSAT 1 21 Dec 12:31:32 12:32:51 11° 91° (E) 12:34:09 437.325
AIST 2 21 Dec 12:32:29 12:34:52 15° 108° (ESE) 12:37:16 435.215
BEESAT 21 Dec 12:53:33 12:57:09 21° 95° (E) 13:00:43 436.000
ESTCUBE 1 21 Dec 12:54:59 12:56:46 12° 295° (WNW) 12:58:32 437.505/2401.250
TISAT 1 21 Dec 12:56:45 13:00:45 42° 287° (WNW) 13:04:44 437.305
Oscar 19 21 Dec 12:57:09 13:02:16 79° 75° (ENE) 13:07:27 437.125/150
PCSat 21 Dec 12:58:43 13:03:41 39° 110° (ESE) 13:08:42 145.827
BEESAT 2 21 Dec 12:59:45 13:03:49 73° 118° (ESE) 13:07:58 435.950
ISS 21 Dec 13:01:26 13:04:44 80° 137° (SE) 13:08:02 145.825
SPROUT 21 Dec 13:02:44 13:06:45 39° 287° (WNW) 13:10:45 437.525
JUGNU 21 Dec 13:05:14 13:08:54 17° 178° (S) 13:12:35 437.505
ITAMSAT 1 21 Dec 13:15:04 13:19:55 42° 71° (ENE) 13:24:46 435.822/435.867
Gurwin Techsat 1B 21 Dec 13:15:37 13:19:56 26° 68° (ENE) 13:24:15 435.225
AUBIESAT-1 21 Dec 13:22:36 13:22:59 10° 94° (E) 13:23:22 437.475
KKS-1 21 Dec 13:44:51 13:47:04 14° 93° (E) 13:49:17 437.445
M-CUBED/EXP-1 PRIME 21 Dec 13:46:12 13:49:38 24° 99° (E) 13:52:50 437.505
BEESAT 3 21 Dec 13:58:07 14:01:27 23° 308° (NW) 14:04:49 437.485
SWISSCUBE 21 Dec 14:05:36 14:10:16 57° 286° (WNW) 14:14:54 437.505
ITUPSAT 1 21 Dec 14:06:23 14:11:06 63° 286° (WNW) 14:15:47 437.325
AIST 2 21 Dec 14:09:03 14:13:04 43° 303° (WNW) 14:17:11 435.215
HORYU 2 21 Dec 14:10:13 14:14:06 30° 70° (ENE) 14:18:01 437.375
SRMSAT 21 Dec 14:10:26 14:13:59 16° 176° (S) 14:17:31 437.500
BEESAT 21 Dec 14:30:45 14:35:01 34° 289° (WNW) 14:39:16 436.000
RS-15 21 Dec 14:30:57 14:38:59 23° 327° (NNW) 14:47:09 29.354- 29.394
ISS 21 Dec 14:39:50 14:41:40 14° 334° (NNW) 14:43:30 145.825
BEESAT 2 21 Dec 14:41:16 14:42:33 11° 315° (NW) 14:43:51 435.950
PCSat 21 Dec 14:42:42 14:47:11 26° 306° (NW) 14:51:42 145.827
JAS-2 21 Dec 14:44:38 14:47:36 13° 60° (ENE) 14:50:28 435.910
AO-7 21 Dec 14:48:05 14:55:50 45° 65° (ENE) 15:03:37 29.400- 29.500
JUGNU 21 Dec 14:54:07 14:57:11 14° 189° (S) 15:00:14 437.505
AUBIESAT-1 21 Dec 14:54:14 14:58:22 51° 291° (WNW) 15:02:07 437.475
Gurwin Techsat 1B 21 Dec 14:54:54 14:59:42 34° 262° (W) 15:04:31 435.225
ITAMSAT 1 21 Dec 14:55:48 14:59:31 20° 266° (W) 15:03:15 435.822/435.867
